Regional Weather Roundup
Issued by NWS

Home | Current Version | Previous Version | Text Only | Print | Product List | Glossary On
Versions: 1 2 3 4 5 6 7 8 9 10 11 12 13 14 15 16 17 18 19 20 21 22 23 24 25 26 27 28 29
000
ASUS45 KBOI 042210
RWRID

IDAHO REGIONAL WEATHER ROUNDUP
NATIONAL WEATHER SERVICE BOISE ID
400 PM MDT WED MAY 04 2016

NOTE: "FAIR" INDICATES FEW OR NO CLOUDS BELOW 12000 FEET
WITH NO SIGNIFICANT WEATHER AND/OR OBSTRUCTIONS TO VISIBILITY

IDZ012-014-042300-
SOUTHWEST IDAHO


CITY           SKY/WX    TMP DP  RH WIND       PRES   REMARKS
BOISE          CLOUDY    84  33  16 S13G22    29.86F
CALDWELL       CLOUDY    83  40  21 SE15G21   29.83F
MOUNTAIN HOME  PTSUNNY   83  33  16 S13       29.86F
$$

IDZ016-017-042300-
SOUTHCENTRAL IDAHO


CITY           SKY/WX    TMP DP  RH WIND       PRES   REMARKS
BURLEY         PTSUNNY   77  32  19 MISG      29.98F
JEROME         PTSUNNY   77  31  18 S6        29.97F
TWIN FALLS     PTSUNNY   78  34  20 S6        29.97F
$$

IDZ019>023-042300-
SOUTHEAST IDAHO


CITY           SKY/WX    TMP DP  RH WIND       PRES   REMARKS
IDAHO FALLS    CLOUDY    76  31  19 S13G22    30.05F
POCATELLO      MOSUNNY   77  32  19 S16       30.04F
REXBURG        CLOUDY    75  29  18 SW15G23   30.05F
$$

IDZ006-010-011-018-031-032-042300-
CENTRAL IDAHO MOUNTAINS


CITY           SKY/WX    TMP DP  RH WIND       PRES   REMARKS
MCCALL         CLOUDY    70  31  23 SW14      29.98F
HAILEY         PTSUNNY   70  37  30 SW5       30.08F
STANLEY          N/A     65  24  21 S14G22    30.11S
SALMON         CLOUDY    79  32  18 SW5G20    29.93F
CHALLIS        PTSUNNY   75  24  15 S14       29.99F
$$

IDZ002-004-006-007-026-042300-
NORTHERN IDAHO


CITY           SKY/WX    TMP DP  RH WIND       PRES   REMARKS
LEWISTON       PTSUNNY   78  47  33 CALM      29.85F
LOWELL           N/A     82  49  31 S10       29.80F
COEUR D`ALENE  SUNNY     77  46  33 CALM      29.88F
MULLAN PASS    CLOUDY    60  33  36 VRB3      30.06F
$$




USA.gov is the U.S. government's official web portal to all federal, state and local government web resources and services.